Погода в Адуеве

Россия / Калужская область     54°58′57″N   35°59′18″E
темп.,
°C
ветер,
м/с
пор.,
м/с
влажн.,
%
обл.,
%
осадки,
мм/ч
давл.,
гПа
погр.,
м
25 июля, вс
вс2500:00+11сз12775 0.0 101810
03:00+10ссз11806 0.0 101910
06:00+12ююз11747 0.0 102013
09:00+20юз11477 0.0 1020476
12:00+23вюв123490 0.0 10202513
15:00+22ююв113787 0.0 10201675
18:00+23ююз114197 0.0 10201031
21:00+16вюв11606 0.0 102111
26 июля, пн
пн2600:00+14ю11711 0.0 102310
03:00+13ююв11705 0.0 102310
06:00+16юв1164100 0.0 102329
09:00+19ю2359100 0.0 1023216
12:00+23ююз344826 0.0 1023745
15:00+26зюз2440100 0.0 10222443
18:00+21зюз246198 0.0 102274
21:00+20зюз116099 0.0 102211
27 июля, вт
вт2700:00+19юз226592 0.0 102230
03:00+17з227824 0.0 102321
06:00+16з118712 0.3 102315
09:00+20ююз12747 0.3 1022159
12:00+27юз22426 0.0 10211957
15:00+22ссв356291 0.1 1020105
18:00+22всв246896 0.3 1020173
21:00+18ю227893 0.4 101937
28 июля, ср
ср2800:00+18ю228286 0.2 101939
03:00+16ююз229110 0.3 101841
06:00+17ююз2586100 0.0 1017128
09:00+21ююв2367100 0.0 1016287
12:00+18ююз2485100 0.4 1015198
15:00+17юв5129454 1.7 1013501
18:00+19ю4108695 0.4 1011780
21:00+18юв279796 1.9 1009284
29 июля, чт
чт2900:00+18юз389978 0.1 1008259
03:00+17з3119827 0.1 1008394
06:00+16з413960 0.0 1008433
09:00+22з510734 0.0 1008720
12:00+26зсз694799 0.0 10082002
15:00+27зсз684018 0.0 10082337
18:00+26зсз49455 0.0 10082120
21:00+20з35700 0.0 100883